Change the Weather History Date:

Thursday, April 10, 2014

  Actual Average Record
Temperature  
Mean Temperature 28 °F -  
Max Temperature 42 °F - - ()
Min Temperature 15 °F - - ()
Degree Days  
Heating Degree Days 36    
Moisture  
Dew Point 19 °F    
Average Humidity 63    
Maximum Humidity 87    
Minimum Humidity 34    
Precipitation  
Precipitation 0.01 in - - ()
Sea Level Pressure  
Sea Level Pressure 29.94 in    
Wind  
Wind Speed 5 mph ()    
Max Wind Speed 14 mph    
Max Gust Speed 21 mph    
Visibility 6.2 miles    
Events Rain , Snow    
T = Trace of Precipitation, MM = Missing Value Source: Averaged Metar Reports

Daily Weather History Graph

Daily Weather History Graph

Search for Another Location

Airport or City:

Trip Planner

Search our weather history database for the weather conditions in past years. The results will help you decide how hot, cold, wet, or windy it might be!

Date:

Astronomy

Apr. 10, 2014 Rise Set
Actual Time 5:20 AM CEST 8:03 PM CEST
Civil Twilight 4:22 AM CEST 9:01 PM CEST
Nautical Twilight 2:59 AM CEST 10:26 PM CEST
Astronomical Twilight 1:13 AM CEST 12:08 AM CEST
Moon 1:47 PM CEST (4/10) 4:22 AM CEST (4/10)
Length of Visible Light 16h 39m
Length of Day
14h 43m
Waxing Gibbous, 77% of the Moon is Illuminated
Apr 10
Waxing Gibbous
Apr 15
Full
Apr 22
Last Quarter
Apr 29
New
May 7
First Quarter

Hourly Weather History & Observations

Time (CEST) Temp. Windchill Dew Point Humidity Pressure Visibility Wind Dir Wind Speed Gust Speed Precip Events Conditions
12:20 AM 23.0 °F 18.4 °F 12.2 °F 63% 30.12 in 6.2 mi ESE 3.5 mph - N/A   Unknown
12:50 AM 23.0 °F 14.7 °F 12.2 °F 63% 30.12 in 6.2 mi ESE 6.9 mph - N/A   Unknown
1:20 AM 23.0 °F 18.4 °F 12.2 °F 63% 30.12 in 6.2 mi SSE 3.5 mph - N/A   Unknown
1:50 AM 21.2 °F 16.4 °F 12.2 °F 68% 30.12 in 6.2 mi SE 3.5 mph - N/A   Unknown
2:00 AM 19 °F - 12 °F 62% 30.17 in 31 mi ESE 4.5 mph - -  
2:20 AM 19.4 °F - 12.2 °F 74% 30.12 in 6.2 mi Calm Calm - N/A   Unknown
2:50 AM 19.4 °F 14.3 °F 12.2 °F 74% 30.09 in 6.2 mi SSW 3.5 mph - N/A   Unknown
3:20 AM 23.0 °F - 12.2 °F 63% 30.09 in 6.2 mi Variable 2.3 mph - N/A   Unknown
3:50 AM 17.6 °F - 10.4 °F 73% 30.09 in 6.2 mi Variable 2.3 mph - N/A   Unknown
4:20 AM 17.6 °F - 10.4 °F 73% 30.09 in 6.2 mi Variable 1.2 mph - N/A   Unknown
4:50 AM 15.8 °F 10.2 °F 10.4 °F 79% 30.06 in 6.2 mi SE 3.5 mph - N/A   Unknown
5:00 AM 17 °F - 11 °F 67% 30.13 in 31 mi SE 2.2 mph - -  
5:20 AM 15.8 °F - 10.4 °F 79% 30.06 in 6.2 mi Calm Calm - N/A   Unknown
5:50 AM 17.6 °F - 10.4 °F 73% 30.06 in 6.2 mi Calm Calm - N/A   Scattered Clouds
6:20 AM 21.2 °F - 10.4 °F 63% 30.04 in 6.2 mi Variable 2.3 mph - N/A   Mostly Cloudy
6:50 AM 24.8 °F - 12.2 °F 59% 30.04 in 6.2 mi Calm Calm - N/A   Scattered Clouds
7:20 AM 24.8 °F - 12.2 °F 59% 30.04 in 6.2 mi Calm Calm - N/A   Mostly Cloudy
7:50 AM 26.6 °F - 14.0 °F 59% 30.04 in 6.2 mi Variable 2.3 mph - N/A   Mostly Cloudy
8:00 AM 26 °F - 15 °F 51% 30.07 in 47 mi East 2.2 mph - -  
8:20 AM 26.6 °F 22.6 °F 14.0 °F 59% 30.01 in 6.2 mi ESE 3.5 mph - N/A   Mostly Cloudy
8:50 AM 30.2 °F 26.7 °F 14.0 °F 51% 30.01 in 6.2 mi ESE 3.5 mph - N/A   Mostly Cloudy
9:20 AM 32.0 °F 26.4 °F 17.6 °F 55% 30.01 in 6.2 mi SSW 5.8 mph - N/A   Mostly Cloudy
9:50 AM 32.0 °F 22.1 °F 21.2 °F 64% 29.98 in 6.2 mi SSW 13.8 mph - N/A   Mostly Cloudy
10:20 AM 32.0 °F 23.6 °F 21.2 °F 64% 29.98 in 6.2 mi SSW 10.4 mph - N/A   Mostly Cloudy
10:50 AM 32.0 °F 24.8 °F 23.0 °F 69% 29.98 in 6.2 mi SSW 8.1 mph - N/A   Scattered Clouds
11:00 AM 33 °F - 23 °F 54% 30.02 in 47 mi SW 11.2 mph - - Snow Light Snow
11:20 AM 33.8 °F 26.4 °F 23.0 °F 65% 29.98 in 6.2 mi SW 9.2 mph - N/A   Mostly Cloudy
11:50 AM 33.8 °F 26.4 °F 23.0 °F 65% 29.98 in 6.2 mi SSW 9.2 mph - N/A   Mostly Cloudy
12:20 PM 35.6 °F 28.0 °F 23.0 °F 60% 29.95 in 6.2 mi SSW 10.4 mph - N/A   Mostly Cloudy
12:50 PM 37.4 °F 30.3 °F 21.2 °F 52% 29.95 in 6.2 mi SSW 10.4 mph - N/A   Mostly Cloudy
1:20 PM 37.4 °F 30.3 °F 21.2 °F 52% 29.92 in - SSW 10.4 mph - N/A   Clear
1:50 PM 39.2 °F 32.0 °F 21.2 °F 49% 29.92 in - South 11.5 mph - N/A   Clear
2:00 PM 39 °F - 21 °F 34% 29.95 in 47 mi SSW 8.9 mph - -   Partly Cloudy
2:20 PM 39.2 °F 33.0 °F 21.2 °F 49% 29.89 in - South 9.2 mph - N/A   Clear
2:50 PM 41.0 °F 34.7 °F 21.2 °F 45% 29.89 in - South 10.4 mph - N/A   Clear
3:20 PM 42.8 °F 36.6 °F 21.2 °F 42% 29.86 in - South 11.5 mph - N/A   Clear
3:50 PM 41.0 °F 34.7 °F 21.2 °F 45% 29.86 in 6.2 mi South 10.4 mph - N/A   Mostly Cloudy
4:20 PM 41.0 °F 35.8 °F 23.0 °F 49% 29.83 in 6.2 mi South 8.1 mph - N/A   Scattered Clouds
4:50 PM 41.0 °F 35.2 °F 21.2 °F 45% 29.83 in 6.2 mi South 9.2 mph - N/A   Partly Cloudy
5:00 PM 41 °F - 22 °F 34% 29.85 in 28 mi South 8.9 mph - -  
5:20 PM 41.0 °F 35.2 °F 23.0 °F 49% 29.80 in 6.2 mi South 9.2 mph 20.7 mph N/A   Scattered Clouds
5:50 PM 39.2 °F 33.0 °F 23.0 °F 52% 29.80 in 6.2 mi South 9.2 mph - N/A   Mostly Cloudy
6:50 PM 37.4 °F 30.8 °F 24.8 °F 60% 29.77 in 6.2 mi SSW 9.2 mph - N/A   Mostly Cloudy
7:20 PM 37.4 °F 30.3 °F 24.8 °F 60% 29.77 in 6.2 mi SSW 10.4 mph - N/A   Light Ice Pellets
7:50 PM 35.6 °F 28.6 °F 26.6 °F 70% 29.77 in 6.2 mi SSW 9.2 mph - N/A   Light Ice Pellets
8:00 PM 35 °F - 28 °F 66% 29.81 in 6 mi SSW 8.9 mph - -   Light Ice Pellets
8:20 PM 33.8 °F 27.7 °F 28.4 °F 81% 29.77 in 6.2 mi South 6.9 mph - N/A Rain , Snow Light Rain
8:50 PM 32.0 °F 24.8 °F 28.4 °F 87% 29.77 in 6.2 mi South 8.1 mph - N/A Rain , Snow Light Rain
9:20 PM 32.0 °F 25.6 °F 28.4 °F 87% 29.74 in 6.2 mi South 6.9 mph - N/A   Overcast
9:50 PM 33.8 °F 28.6 °F 28.4 °F 81% 29.74 in 6.2 mi South 5.8 mph - N/A   Overcast
10:20 PM 33.8 °F 27.7 °F 28.4 °F 81% 29.71 in 6.2 mi South 6.9 mph - N/A   Overcast
10:50 PM 33.8 °F 27.0 °F 28.4 °F 81% 29.71 in 6.2 mi South 8.1 mph - N/A   Overcast
11:00 PM 34 °F - 28 °F 71% 29.74 in 28 mi South 6.7 mph - -   Clear
11:20 PM 33.8 °F 27.0 °F 28.4 °F 81% 29.68 in 6.2 mi South 8.1 mph - N/A Rain Light Rain
11:50 PM 33.8 °F 29.6 °F 30.2 °F 87% 29.68 in 6.2 mi South 4.6 mph - N/A   Light Ice Pellets